975  
ASUS42 KMHX 231422  
RWRMHX  
WEATHER ROUNDUP FOR EASTERN NORTH CAROLINA  
NATIONAL WEATHER SERVICE NEWPORT/MOREHEAD CITY NC  
900 AM EST SUN NOV 23 2014  
 
NOTE: "FAIR" INDICATES FEW OR NO CLOUDS BELOW 12,000 FEET  
WITH NO SIGNIFICANT WEATHER AND/OR S TO VISIBILITY
 
 
NCZ015>017-031-032-045>047-102-103-231500-  
NORTH COAST  
 
CITY SKY/WX TMP DP RH WIND PRES REMARKS
 
EDENTON CLOUDY 46 41 83 CALM 30.26F  
ELIZABETH CITY CLOUDY 48 40 73 CALM 30.27F  
KITTY HAWK CLOUDY 57 49 73 SE5 30.26F  
MANTEO CLOUDY 58 49 73 SE6 30.28F  
 

 
 
NCZ045>047-081-094-103-104-231500-  
CENTRAL COAST  
 
CITY SKY/WX TMP DP RH WIND PRES REMARKS
 
FRISCO CLOUDY 58 54 86 E5 30.28F  
SWANQUARTER N/A 54 N/A N/A NE2 30.21S  
 

 
 
NCZ095-097-098-100-101-231500-  
SOUTHERN COAST  
 
CITY SKY/WX TMP DP RH WIND PRES REMARKS
 
BEAUFORT LGT RAIN 62 55 77 SE7 30.25S  
CEDAR ISLAND N/A 54 N/A N/A SE5 30.30S  
JACKSONVILLE CLOUDY 52 50 93 N3 30.24S  
PINEY ISLAND LGT RAIN 59 52 77 SE8 30.25F  
WILMINGTON LGT RAIN 60 57 89 SE6 30.24S  
 

 
 
NCZ011>013-027>030-043-044-078>080-089-090>093-098-231500-  
COASTAL PLAIN  
 
CITY SKY/WX TMP DP RH WIND PRES REMARKS
 
AHOSKIE CLOUDY 41 35 80 CALM 30.26F  
CLINTON DRIZZLE 47 45 90 CALM 30.25F  
ELIZABETHTOWN CLOUDY 47 47 100 CALM 30.24F FOG  
GOLDSBORO CLOUDY 45 42 88 CALM 30.23F  
GREENVILLE CLOUDY 45 37 76 CALM 30.26F  
HAVELOCK CLOUDY 55 52 89 CALM 30.25F  
KENANSVILLE CLOUDY 48 44 84 CALM 30.26S  
KINSTON CLOUDY 46 39 76 CALM 30.26F  
NEW BERN LGT RAIN 52 47 83 NW3 30.26S  
RICHLANDS CLOUDY 52 46 82 CALM 30.26R  
ROCKY MOUNT CLOUDY 43 31 62 CALM 30.26S  
WASHINGTON CLOUDY 47 41 81 CALM 30.26S  
WHITEVILLE LGT RAIN 54 54 100 SE6 30.23F  
 

 
 
AMZ130-135-150-152-154-156-158-170-250-252-270-ANZ085-086-088-633-658-670-231500-  
MARINE OBSERVATIONS  
 
STATION/POSITION TIME TEMP WIND PRES WAVE SWELL
 
AIR SEA DIR/SP/G HT/PER HT/PER  
(UTC) (F) (DEG/KT/KT) (MB) (FT/S) (FT/S)  
CHESAPEAKE LIGHT 1400 52 190/ 4/ 4 1025.5  
64 E VA BEACH 1400 64 64 200/ 12/ 16 1025.3 2/ 9 2/ 9  
DUCK 1400 56 54 150/ 7/ 8 1024.2  
2 E DUCK 1400 56 N/A 1/ 9  
10 NE DUCK 1400 58 N/A 1/ 8  
OREGON INLET 1400 58 50 100/ 4/ 6 1025.1  
13E OREGON INLT 1400 62 N/A 2/ 8  
HATTERAS CG 1400 62 51 100/ 6/ 8 1025.4  
DIAMOND BUOY 1400 69 140/ 12/ 14 1025.6 3/ 8 2/ 8  
17 S OCRACOKE NOT AVBL  
CAPE LOOKOUT 1400 65 120/ 12/ 13 1024.2  
BEAUFORT LAB 1400 58 53 130/ 6/ 7 1023.2  
30 SE NEW RIVER 1400 69 70 140/ 14/ 16 1023.4 3/ 9 2/ 9  
5 SE WRIGHTSVLE 1400 56 60 140/ 4/ 6 1024.1  
225 S CAPE HAT 1324 71 73 130/ 17/ 21 1024.9 4/ 5 2/ 8  
41 SE CHARLESTON 1400 70 76 110/ 23/ 29 1019.4 7/ 7 2/14  
 

 
 
CLICK HERE TO GO TO PREVIOUS BULLETINS.

The Nexlab NC Page Main Text Page